loading
DOY 198 | 2024-07-16T12:05:46Z

ATLAS CENTAUR 2 DEB, 3741

Orbit data source: Space-Track

ATLAS CENTAUR 2 DEB, 3741 is space debris in LEO originally from a launch on Wed, 27 Nov 1963 UTC launched from the Air Force Eastern Test Range (AFETR). Debris objects in space refer to the collection of defunct objects orbiting the Earth. Examples of debris include non-operational satellites, rocket bodies, and fragments generated from explosions, collisions, or faulty payload assembly.

Loading next visibility...
Loading greatness...
ATLAS CENTAUR 2 DEB details
NORAD ID3741
COSPAR ID
1963-047L
Orbit
LEO
Last TLE update8 hours ago
Origin
Flag of USNASA LeRC (US)
ManufacturerUnknown
BusUnknown
MotorUnknown
MassWet unknown, Dry mass unknown
Launch date (UTC)
1963-11-27 (61 years ago)
Launch vehicleUnknown
Launch site
Air Force Eastern Test Range (AFETR)
Object type
Payload
Rocket body
Debris
Radar Cross SectionSmall (<0.1 m²)
Predictive object data (real-time)
Latitude-29.97194°
Longitude72.8214°
Altitude598.869 km
Speed7.665 km/s
Apparent Right ascension07h 57m 03s
Apparent Declination-54° 27' 31"
Sunlit
Object is in daylight
Predictive observer data (real-time)
Local Sidereal Time00:44:35
Azimuth132.604° SE
Elevation-41.359°
Doppler factor1
Orbital elements
Apogee1,000.083 km
Perigee588.447 km
Semi-major axis7,172.402 km
Eccentricity0.0286958
Inclination29.8808°
RAAN157.4019°
Arg. of periapsis285.8237°
True anomaly74.23601°
Mean anomaly71.0902°
Mean motion3.57311 °/min
BSTAR0.0033333
Period100.75 mins
Definitive object data (Epoch: 2024-07-16T04:06:29.244Z)
Latitude-0.00003°
Longitude161.28613°
Altitude727.561 km
Speed7.526 km/s
True Right ascension10h 29m 36s
True Declination0° 00' 00"
Sunlit
Object was in daylight at TLE epoch
TLE from 8 hours ago
0 ATLAS CENTAUR 2 DEB
1  3741U 63047L   24198.17117181  .00013946  00000-0  33333-2 0  9996
2  3741  29.8808 157.4019 0286958 285.8237  71.0902 14.30398810811761
Epoch: 2024-07-16T04:06Z
No data available

ATLAS CENTAUR 2 DEB Visibility forecast

Observer location: 39.9160978°, -105.1181434

ATLAS CENTAUR 2 DEB is not visible in the next 10 days
Span
Click to sort rows by Start time (UTC) header in descending order
Start Az.
Max El. time (UTC)
Max El. Az.
Max El.
End time (UTC)
End Az.